SL-16 DEB, 23302

Orbit data source: Space-Track

SL-16 DEB, 23302 is space debris in LEO originally from a launch on Fri, 25 Dec 1992 UTC launched from the Tyuratam Missile And Space Complex (TTMTR). Debris objects in space refer to the collection of defunct objects orbiting the Earth. Examples of debris include non-operational satellites, rocket bodies, and fragments generated from explosions, collisions, or faulty payload assembly.

Loading next visibility...
Identifier
23302, 1992-093JH
Orbit
LEO
Country
Flag of CISCIS
Related business
Manufacturer
Unknown
Mission
Spacecraft
Bus & Motor
Unknown
Mass
Unknown
Launch date (UTC)
1992-12-25 (33 years ago)
Launch vehicle
Unknown
Launch site
Tyuratam Missile And Space Complex (TTMTR)
Object type
Payload
Rocket body
Debris
Shape & HBR
Unknown shape, 0.1 m
Radar Cross Section
Small (<0.1 m²)

Expand to show TLE details & history
Last TLE update: 1 week ago

TLE from 1 week ago
0 SL-16 DEB
1 23302U 92093JH  25342.34799404  .00002913  00000-0  14800-2 0  9999
2 23302  71.1304 184.8227 0116011 237.6325 301.3149 14.13275045627242
Epoch: 2025-12-08T08:21Z
TLE epoch observation values (Epoch: 2025-12-08T08:21:06.685Z)
Latitude
1.98439°
Longitude
161.52161°
Altitude
807.497 km
Speed
7.472 km/s
True Right ascension
00h 16m 35s
True Declination
1° 58' 21"
Sunlit
Object was in daylight at epoch
Visualization orbit readout
Latitude
Unknown
Longitude
Unknown
Altitude
Unknown
Speed
Unknown
Apparent Right ascension
Unknown
Apparent Declination
Unknown
Sunlit
N/A
Visualization observer readout
Local Sidereal Time
17:22:55
Azimuth
Unknown
Elevation
Unknown
Doppler factor
Unknown
Orbital elements
Apogee altitude
929.909 km
Perigee altitude
762.29 km
Semi-major axis
7,224.237 km
Eccentricity
0.0116
Inclination
71.1304°
RAAN
184.8227°
Arg. of periapsis
237.6325°
True anomaly
300.17063°
Mean anomaly
301.3149°
Eccentric anomaly
300.74362°
Mean motion
3.53472 °/min
Orbital period
101.85 mins
BSTAR
0.00148
Loading maneuver chart data...
Computing Atmospheric mass density...
Loading historical data...
Loading historical data...
Loading historical data...
Loading historical data...
Loading historical data...
Loading historical data...
Loading historical data...

Documentation

Showing up to 5 results
|